Weather History for Weaverville, CA

Change the Weather History Date:

Wednesday, March 19, 2014

  Actual Average (KRDD) Record (KRDD)
Temperature  
Mean Temperature 48 °F -  
Max Temperature 68 °F 65 °F 81 °F (2010)
Min Temperature 28 °F 43 °F 32 °F (1987)
Degree Days  
Heating Degree Days 17    
Cooling Degree Days 0    
Moisture  
Dew Point 27 °F    
Average Humidity 56    
Maximum Humidity 93    
Minimum Humidity 15    
Precipitation  
Precipitation 0.00 in 0.12 in 1.15 in (2011)
Month to date precipitation 3.10  
Year to date precipitation 14.57  
Since 1 July precipitation 28.33  
Sea Level Pressure  
Sea Level Pressure 30.08 in    
Wind  
Wind Speed 2 mph (WSW)    
Max Wind Speed 10 mph    
Max Gust Speed -    
Visibility 10 miles    
Events      
T = Trace of Precipitation, MM = Missing Value Source: NWS Daily Summary

Daily Weather History Graph

Daily Weather History Graph

Search for Another Location

Airport:

Trip Planner

Search our weather history database for the weather conditions in past years. The results will help you decide how hot, cold, wet, or windy it might be!

Date:

Astronomy

Mar. 19, 2014 Rise Set
Actual Time 7:16 AM PDT 7:22 PM PDT
Civil Twilight 6:49 AM PDT 7:50 PM PDT
Nautical Twilight 6:17 AM PDT 8:22 PM PDT
Astronomical Twilight 5:44 AM PDT 8:54 PM PDT
Moon 10:48 PM PDT 8:44 AM PDT
Length of Visible Light 13h 00m
Length of Day
12h 06m
Waning Gibbous, 90% of the Moon is Illuminated
Mar 19
Waning Gibbous
Mar 23
Last Quarter
Mar 30
New
Apr 7
First Quarter
Apr 15
Full

Hourly Weather History & Observations

Time (PDT) Temp. Windchill Dew Point Humidity Pressure Visibility Wind Dir Wind Speed Gust Speed Precip Events Conditions
12:15 AM 35.6 °F - 28.4 °F 75% 30.05 in 10.0 mi Calm Calm - N/A   Partly Cloudy
12:35 AM 35.6 °F - 28.4 °F 75% 30.05 in 10.0 mi Calm Calm - N/A   Clear
12:55 AM 33.8 °F 29.6 °F 28.4 °F 81% 30.05 in 8.0 mi North 4.6 mph - N/A   Partly Cloudy
1:15 AM 33.8 °F 29.6 °F 28.4 °F 81% 30.05 in 10.0 mi North 4.6 mph - N/A   Clear
1:35 AM 32.0 °F - 28.4 °F 87% 30.05 in 10.0 mi Calm Calm - N/A   Clear
1:55 AM 32.0 °F 28.7 °F 26.6 °F 80% 30.06 in 10.0 mi NNE 3.5 mph - N/A   Partly Cloudy
2:15 AM 32.0 °F - 26.6 °F 80% 30.06 in 10.0 mi Calm Calm - N/A   Partly Cloudy
2:35 AM 32.0 °F - 26.6 °F 80% 30.06 in 10.0 mi Calm Calm - N/A   Scattered Clouds
2:55 AM 32.0 °F - 26.6 °F 80% 30.05 in 10.0 mi Calm Calm - N/A   Scattered Clouds
3:15 AM 32.0 °F - 26.6 °F 80% 30.05 in 10.0 mi Calm Calm - N/A   Scattered Clouds
3:35 AM 30.2 °F - 26.6 °F 86% 30.05 in 10.0 mi Calm Calm - N/A   Mostly Cloudy
3:55 AM 30.2 °F 26.7 °F 26.6 °F 86% 30.05 in 10.0 mi NNE 3.5 mph - N/A   Mostly Cloudy
4:15 AM 30.2 °F - 26.6 °F 86% 30.05 in 10.0 mi Calm Calm - N/A   Scattered Clouds
4:35 AM 28.4 °F - 26.6 °F 93% 30.06 in 10.0 mi Calm Calm - N/A   Scattered Clouds
4:55 AM 28.4 °F - 26.6 °F 93% 30.06 in 10.0 mi Calm Calm - N/A   Scattered Clouds
5:15 AM 28.4 °F - 24.8 °F 86% 30.06 in 10.0 mi Calm Calm - N/A   Scattered Clouds
5:35 AM 28.4 °F - 24.8 °F 86% 30.07 in 10.0 mi Calm Calm - N/A   Scattered Clouds
5:55 AM 28.4 °F - 24.8 °F 86% 30.08 in 10.0 mi Calm Calm - N/A   Scattered Clouds
6:15 AM 28.4 °F - 24.8 °F 86% 30.08 in 10.0 mi Calm Calm - N/A   Scattered Clouds
6:35 AM 28.4 °F - 24.8 °F 86% 30.08 in 10.0 mi Calm Calm - N/A   Mostly Cloudy
6:55 AM 28.4 °F - 24.8 °F 86% 30.09 in 10.0 mi Calm Calm - N/A   Partly Cloudy
7:15 AM 28.4 °F - 24.8 °F 86% 30.10 in 10.0 mi Calm Calm - N/A   Partly Cloudy
7:35 AM 28.4 °F - 24.8 °F 86% 30.11 in 10.0 mi Calm Calm - N/A   Clear
7:55 AM 28.4 °F - 24.8 °F 86% 30.12 in 10.0 mi Calm Calm - N/A   Clear
8:15 AM 28.4 °F - 24.8 °F 86% 30.13 in 10.0 mi Calm Calm - N/A   Clear
8:35 AM 30.2 °F - 26.6 °F 86% 30.14 in 10.0 mi Calm Calm - N/A   Clear
8:55 AM 32.0 °F - 26.6 °F 80% 30.14 in 10.0 mi Calm Calm - N/A   Clear
9:15 AM 33.8 °F - 26.6 °F 75% 30.14 in 10.0 mi Calm Calm - N/A   Clear
9:35 AM 37.4 °F 34.9 °F 28.4 °F 70% 30.14 in 10.0 mi SSW 3.5 mph - N/A   Clear
9:55 AM 39.2 °F - 26.6 °F 61% 30.14 in 10.0 mi Calm Calm - N/A   Clear
10:15 AM 41.0 °F - 26.6 °F 57% 30.14 in 10.0 mi Calm Calm - N/A   Clear
10:35 AM 44.6 °F - 28.4 °F 53% 30.14 in 10.0 mi Calm Calm - N/A   Clear
10:55 AM 46.4 °F - 26.6 °F 46% 30.14 in 10.0 mi Calm Calm - N/A   Clear
11:15 AM 48.2 °F - 26.6 °F 43% 30.14 in 10.0 mi SSW 3.5 mph - N/A   Clear
11:35 AM 50.0 °F - 24.8 °F 37% 30.13 in 10.0 mi WNW 3.5 mph - N/A   Clear
11:55 AM 53.6 °F - 28.4 °F 38% 30.13 in 10.0 mi Calm Calm - N/A   Clear
12:15 PM 55.4 °F - 28.4 °F 36% 30.12 in 10.0 mi WSW 4.6 mph - N/A   Clear
12:35 PM 57.2 °F - 26.6 °F 31% 30.12 in 10.0 mi Calm Calm - N/A   Clear
12:55 PM 59.0 °F - 23.0 °F 25% 30.11 in 10.0 mi SW 4.6 mph - N/A   Clear
1:15 PM 60.8 °F - 14.0 °F 16% 30.10 in 10.0 mi Calm Calm - N/A   Clear
1:35 PM 62.6 °F - 15.8 °F 16% 30.10 in 10.0 mi Calm Calm - N/A   Clear
1:55 PM 62.6 °F - 15.8 °F 16% 30.09 in 10.0 mi Calm Calm - N/A   Clear
2:15 PM 64.4 °F - 19.4 °F 18% 30.08 in 10.0 mi SW 3.5 mph - N/A   Clear
2:35 PM 64.4 °F - 19.4 °F 18% 30.07 in 10.0 mi Calm Calm - N/A   Clear
2:55 PM 64.4 °F - 23.0 °F 21% 30.07 in 10.0 mi SW 5.8 mph - N/A   Clear
3:15 PM 66.2 °F - 21.2 °F 18% 30.07 in 10.0 mi SSW 5.8 mph - N/A   Clear
3:35 PM 66.2 °F - 17.6 °F 15% 30.06 in 10.0 mi South 3.5 mph - N/A   Clear
3:55 PM 68.0 °F - 17.6 °F 15% 30.06 in 10.0 mi SW 10.4 mph - N/A   Clear
4:15 PM 68.0 °F - 19.4 °F 16% 30.05 in 10.0 mi Calm Calm - N/A   Clear
4:35 PM 68.0 °F - 23.0 °F 18% 30.05 in 10.0 mi West 6.9 mph - N/A   Clear
4:55 PM 68.0 °F - 23.0 °F 18% 30.04 in 10.0 mi SW 10.4 mph - N/A   Clear
5:15 PM 68.0 °F - 23.0 °F 18% 30.04 in 10.0 mi WSW 6.9 mph - N/A   Clear
5:35 PM 68.0 °F - 24.8 °F 20% 30.04 in 10.0 mi SSW 6.9 mph - N/A   Clear
5:55 PM 68.0 °F - 24.8 °F 20% 30.04 in 10.0 mi SSW 5.8 mph - N/A   Clear
6:15 PM 66.2 °F - 24.8 °F 21% 30.03 in 10.0 mi West 5.8 mph - N/A   Clear
6:35 PM 66.2 °F - 24.8 °F 21% 30.04 in 10.0 mi WSW 8.1 mph - N/A   Clear
6:55 PM 64.4 °F - 24.8 °F 22% 30.04 in 10.0 mi SW 3.5 mph - N/A   Clear
7:15 PM 62.6 °F - 26.6 °F 26% 30.04 in 10.0 mi SW 3.5 mph - N/A   Clear
7:35 PM 57.2 °F - 32.0 °F 38% 30.05 in 10.0 mi South 4.6 mph - N/A   Clear
7:55 PM 57.2 °F - 30.2 °F 36% 30.05 in 10.0 mi South 5.8 mph - N/A   Partly Cloudy
8:15 PM 55.4 °F - 35.6 °F 47% 30.06 in 10.0 mi NNE 5.8 mph - N/A   Partly Cloudy
8:35 PM 51.8 °F - 35.6 °F 54% 30.07 in 10.0 mi Calm Calm - N/A   Partly Cloudy
8:55 PM 50.0 °F - 33.8 °F 54% 30.07 in 10.0 mi East 3.5 mph - N/A   Mostly Cloudy
9:15 PM 48.2 °F - 35.6 °F 62% 30.07 in 10.0 mi NNE 3.5 mph - N/A   Mostly Cloudy
9:35 PM 48.2 °F - 35.6 °F 62% 30.08 in 10.0 mi Calm Calm - N/A   Mostly Cloudy
9:55 PM 48.2 °F - 35.6 °F 62% 30.08 in 10.0 mi Calm Calm - N/A   Mostly Cloudy
10:15 PM 46.4 °F 45.2 °F 35.6 °F 66% 30.09 in 10.0 mi SSW 3.5 mph - N/A   Mostly Cloudy
10:35 PM 46.4 °F - 35.6 °F 66% 30.10 in 10.0 mi Calm Calm - N/A   Mostly Cloudy
10:55 PM 44.6 °F 43.1 °F 33.8 °F 66% 30.10 in 10.0 mi North 3.5 mph - N/A   Mostly Cloudy
11:15 PM 44.6 °F - 33.8 °F 66% 30.11 in 10.0 mi Calm Calm - N/A   Mostly Cloudy
11:35 PM 42.8 °F 41.1 °F 35.6 °F 76% 30.11 in 10.0 mi North 3.5 mph - N/A   Mostly Cloudy
11:55 PM 41.0 °F 39.0 °F 33.8 °F 76% 30.11 in 10.0 mi ENE 3.5 mph - N/A   Mostly Cloudy